This demonstration page uses our WeatherBlox Daily Observations layout. Learn more.

Left ArrowRight Arrow

Hourly Observations for July 5, 2016

Temp ( °F °C ) Dew Point ( °F °C ) Humidity (%) Winds ( mph kmh ) Pressure ( in mb ) Visibility ( mi km ) Precip ( " mm )
12:18 am 00:18 Cloudy 72 22.2 70 21.1 94 94 N N/A 29.88 1012 7 11 N/A
12:53 am 00:53 Cloudy with Mist and Fog 72 22.2 70 21.1 94 94 N N/A 29.88 1012 6 10 N/A
1:09 am 01:09 Cloudy with Mist and Fog 72 22.2 70 21.1 94 94 N N/A 29.88 1012 5 8 N/A
1:53 am 01:53 Cloudy 72 22.2 70 21.1 94 94 SW 3 6 29.88 1012 7 11 N/A
2:53 am 02:53 Cloudy 73 22.8 70 21.1 90 90 SW 3 6 29.87 1012 9 14 N/A
3:53 am 03:53 Cloudy 72 22.2 70 21.1 94 94 N N/A 29.88 1012 7 11 N/A
4:38 am 04:38 Cloudy 73 22.8 70 21.1 90 90 N N/A 29.88 1012 8 13 N/A
4:53 am 04:53 Cloudy 73 22.8 70 21.1 90 90 SSW 3 6 29.87 1011 7 11 N/A
5:07 am 05:07 Cloudy 72 22.2 70 21.1 94 94 SSW 3 6 29.88 1012 7 11 N/A
5:27 am 05:27 Cloudy 73 22.8 70 21.1 90 90 SW 3 6 29.88 1012 7 11 N/A
5:53 am 05:53 Cloudy 73 22.8 70 21.1 90 90 WSW 5 7 29.88 1012 7 11 N/A
6:09 am 06:09 Cloudy with Mist and Fog 73 22.8 71 21.7 94 94 W 5 7 29.91 1013 6 10 N/A
6:53 am 06:53 Cloudy with Light Rain 73 22.8 71 21.7 94 94 W 3 6 29.89 1012 4 6 N/A
7:05 am 07:05 Cloudy with Mist and Fog 73 22.8 71 21.7 94 94 WSW 3 6 29.91 1013 5 8 N/A
7:49 am 07:49 Cloudy 73 23 72 22 94 94 W 5 7 29.94 1014 9 14 N/A
7:53 am 07:53 Cloudy 74 23.3 71 21.7 91 91 WNW 5 7 29.91 1013 9 14 N/A
8:21 am 08:21 Cloudy 74 23.3 70 21.1 88 88 WNW 6 9 29.94 1014 10 16 N/A
8:40 am 08:40 Cloudy 74 23.3 70 21.1 88 88 NNW 5 7 29.94 1014 10 16 N/A
8:53 am 08:53 Cloudy 75 23.9 70 21.1 84 84 WNW 5 7 29.92 1013 10 16 N/A
9:53 am 09:53 Cloudy 77 25 69 20.6 77 77 N 5 7 29.92 1013 10 16 N/A
10:53 am 10:53 Cloudy 79 26.1 68 20 69 69 NW 5 7 29.93 1014 10 16 N/A
11:09 am 11:09 Cloudy 79 26.1 69 20.6 72 72 NNW 8 13 29.91 1013 10 16 N/A
11:53 am 11:53 Cloudy 79 26.1 68 20 69 69 WNW 7 11 29.95 1014 10 16 N/A
12:53 pm 12:53 Cloudy 82 27.8 68 20 63 63 WNW 12 19 29.95 1014 10 16 N/A
1:53 pm 13:53 Cloudy 82 27.8 65 18.3 56 56 W 7 11 29.95 1014 10 16 N/A
2:53 pm 14:53 Cloudy 84 28.9 66 18.9 55 55 W 7 11 29.94 1014 10 16 N/A
3:53 pm 15:53 Partly Cloudy 85 29.4 66 18.9 53 53 W 8 13 29.93 1014 10 16 N/A
4:53 pm 16:53 Mostly Sunny 84 28.9 66 18.9 55 55 W 7 11 29.92 1013 10 16 N/A
5:53 pm 17:53 Cloudy 83 28.3 65 18.3 55 55 VRB 5 7 29.93 1013 10 16 N/A
6:53 pm 18:53 Cloudy 83 28.3 66 18.9 57 57 W 6 9 29.93 1013 10 16 N/A
7:53 pm 19:53 Mostly Sunny 82 27.8 66 18.9 58 58 VRB 6 9 29.94 1014 10 16 N/A
8:53 pm 20:53 Sunny 76 24.4 69 20.6 79 79 N N/A 29.93 1014 10 16 N/A
9:53 pm 21:53 Clear 70 21.1 67 19.4 90 90 N N/A 29.92 1013 10 16 N/A
10:53 pm 22:53 Clear 68 20 66 18.9 93 93 N N/A 29.93 1014 10 16 N/A
11:53 pm 23:53 Clear 68 20 65 18.3 90 90 N N/A 29.94 1014 9 14 N/A

Powered by AerisWeather